contact:dominique.lefevre@mio.osupytheas.fr, maurice.libes@osupytheas.fr, didier.mallarino@osupytheas.fr
Project:EMSO http://www.emso-fr.org/EMSO-France
Depth: 2436.0 m
Title:EMSO Ligure Ouest : Data MII capteur MICROCAT
DateTime_Computer,Latitude,Longitude,Temperature,Conductivity,Pressure,DateTime_Instrument
DateTime_Computer,Latitude,Longitude,degC,S m-1,dbar,DateTime_Instrument
2022-11-03T00:01:33Z,42.805,6.029,13.3014,4.60059,2470.591,2022-11-03T02:03:30Z
2022-11-03T00:04:36Z,42.805,6.029,13.3011,4.60058,2470.624,2022-11-03T02:06:34Z
2022-11-03T00:07:40Z,42.805,6.029,13.3015,4.60057,2470.624,2022-11-03T02:09:37Z
2022-11-03T00:10:43Z,42.805,6.029,13.3015,4.60059,2470.614,2022-11-03T02:12:40Z
2022-11-03T00:13:46Z,42.805,6.029,13.3019,4.60059,2470.577,2022-11-03T02:15:43Z
2022-11-03T00:16:49Z,42.805,6.029,13.3015,4.60058,2470.637,2022-11-03T02:18:46Z
2022-11-03T00:19:52Z,42.805,6.029,13.3010,4.60057,2470.6,2022-11-03T02:21:49Z
2022-11-03T00:22:55Z,42.805,6.029,13.3013,4.60057,2470.591,2022-11-03T02:24:52Z
2022-11-03T00:25:58Z,42.805,6.029,13.3014,4.60059,2470.6,2022-11-03T02:27:55Z
2022-11-03T00:29:01Z,42.805,6.029,13.3010,4.60057,2470.591,2022-11-03T02:30:58Z
2022-11-03T00:32:04Z,42.805,6.029,13.3012,4.60060,2470.6,2022-11-03T02:34:01Z
2022-11-03T00:35:07Z,42.805,6.029,13.3010,4.60060,2470.624,2022-11-03T02:37:04Z
2022-11-03T00:38:10Z,42.805,6.029,13.3013,4.60058,2470.6,2022-11-03T02:40:07Z
2022-11-03T00:41:13Z,42.805,6.029,13.3010,4.60059,2470.624,2022-11-03T02:43:10Z
2022-11-03T00:44:16Z,42.805,6.029,13.3011,4.60058,2470.6,2022-11-03T02:46:13Z
2022-11-03T00:47:20Z,42.805,6.029,13.3015,4.60057,2470.614,2022-11-03T02:49:17Z
2022-11-03T00:50:23Z,42.805,6.029,13.3014,4.60058,2470.614,2022-11-03T02:52:20Z
2022-11-03T00:53:26Z,42.805,6.029,13.3011,4.60059,2470.624,2022-11-03T02:55:23Z
2022-11-03T00:56:29Z,42.805,6.029,13.3015,4.60059,2470.6,2022-11-03T02:58:26Z
2022-11-03T00:59:32Z,42.805,6.029,13.3009,4.60058,2470.614,2022-11-03T03:01:29Z
2022-11-03T01:02:35Z,42.805,6.029,13.3013,4.60058,2470.624,2022-11-03T03:04:32Z
2022-11-03T01:05:38Z,42.805,6.029,13.3015,4.60058,2470.637,2022-11-03T03:07:35Z
2022-11-03T01:08:41Z,42.805,6.029,13.3013,4.60059,2470.637,2022-11-03T03:10:38Z
2022-11-03T01:11:44Z,42.805,6.029,13.3013,4.60058,2470.637,2022-11-03T03:13:41Z
2022-11-03T01:14:47Z,42.805,6.029,13.3015,4.60059,2470.6,2022-11-03T03:16:44Z
2022-11-03T01:17:50Z,42.805,6.029,13.3012,4.60057,2470.614,2022-11-03T03:19:47Z
2022-11-03T01:20:53Z,42.805,6.029,13.3011,4.60059,2470.624,2022-11-03T03:22:50Z
2022-11-03T01:23:56Z,42.805,6.029,13.3014,4.60057,2470.6,2022-11-03T03:25:53Z
2022-11-03T01:26:59Z,42.805,6.029,13.3011,4.60056,2470.624,2022-11-03T03:28:57Z
2022-11-03T01:30:03Z,42.805,6.029,13.3013,4.60057,2470.6,2022-11-03T03:32:00Z
2022-11-03T01:33:06Z,42.805,6.029,13.3008,4.60057,2470.6,2022-11-03T03:35:03Z
2022-11-03T01:36:09Z,42.805,6.029,13.3011,4.60057,2470.637,2022-11-03T03:38:06Z
2022-11-03T01:39:12Z,42.805,6.029,13.3011,4.60057,2470.624,2022-11-03T03:41:09Z
2022-11-03T01:42:15Z,42.805,6.029,13.3010,4.60056,2470.61,2022-11-03T03:44:12Z
2022-11-03T01:45:18Z,42.805,6.029,13.3015,4.60057,2470.637,2022-11-03T03:47:15Z
2022-11-03T01:48:21Z,42.805,6.029,13.3011,4.60057,2470.6,2022-11-03T03:50:18Z
2022-11-03T01:51:24Z,42.805,6.029,13.3014,4.60057,2470.646,2022-11-03T03:53:21Z
2022-11-03T01:54:27Z,42.805,6.029,13.3012,4.60057,2470.646,2022-11-03T03:56:24Z
2022-11-03T01:57:30Z,42.805,6.029,13.3014,4.60057,2470.614,2022-11-03T03:59:27Z
2022-11-03T02:00:33Z,42.805,6.029,13.3013,4.60059,2470.637,2022-11-03T04:02:30Z
2022-11-03T02:03:36Z,42.805,6.029,13.3011,4.60057,2470.624,2022-11-03T04:05:33Z
2022-11-03T02:06:39Z,42.805,6.029,13.3010,4.60057,2470.661,2022-11-03T04:08:36Z
2022-11-03T02:09:42Z,42.805,6.029,13.3013,4.60058,2470.661,2022-11-03T04:11:40Z
2022-11-03T02:12:46Z,42.805,6.029,13.3012,4.60058,2470.67,2022-11-03T04:14:43Z
2022-11-03T02:15:49Z,42.805,6.029,13.3012,4.60057,2470.637,2022-11-03T04:17:46Z
2022-11-03T02:18:52Z,42.805,6.029,13.3012,4.60057,2470.646,2022-11-03T04:20:49Z
2022-11-03T02:21:55Z,42.805,6.029,13.3015,4.60058,2470.624,2022-11-03T04:23:52Z
2022-11-03T02:24:58Z,42.805,6.029,13.3012,4.60057,2470.646,2022-11-03T04:26:55Z
2022-11-03T02:28:01Z,42.805,6.029,13.3012,4.60057,2470.6,2022-11-03T04:29:58Z
2022-11-03T02:31:04Z,42.805,6.029,13.3013,4.60057,2470.624,2022-11-03T04:33:01Z
2022-11-03T02:34:07Z,42.805,6.029,13.3014,4.60057,2470.637,2022-11-03T04:36:04Z
2022-11-03T02:37:10Z,42.805,6.029,13.3011,4.60057,2470.646,2022-11-03T04:39:07Z
2022-11-03T02:40:13Z,42.805,6.029,13.3010,4.60057,2470.646,2022-11-03T04:42:10Z
2022-11-03T02:43:16Z,42.805,6.029,13.3014,4.60057,2470.646,2022-11-03T04:45:13Z
2022-11-03T02:46:19Z,42.805,6.029,13.3014,4.60058,2470.646,2022-11-03T04:48:16Z
2022-11-03T02:49:22Z,42.805,6.029,13.3009,4.60058,2470.637,2022-11-03T04:51:20Z
2022-11-03T02:52:26Z,42.805,6.029,13.3011,4.60058,2470.633,2022-11-03T04:54:23Z
2022-11-03T02:55:29Z,42.805,6.029,13.3011,4.60057,2470.637,2022-11-03T04:57:26Z
2022-11-03T02:58:32Z,42.805,6.029,13.3013,4.60058,2470.614,2022-11-03T05:00:29Z
2022-11-03T03:01:35Z,42.805,6.029,13.3013,4.60057,2470.624,2022-11-03T05:03:32Z
2022-11-03T03:04:38Z,42.805,6.029,13.3011,4.60059,2470.661,2022-11-03T05:06:35Z
2022-11-03T03:07:41Z,42.805,6.029,13.3011,4.60058,2470.624,2022-11-03T05:09:38Z
2022-11-03T03:10:44Z,42.805,6.029,13.3012,4.60058,2470.624,2022-11-03T05:12:41Z
2022-11-03T03:13:47Z,42.805,6.029,13.3012,4.60059,2470.6,2022-11-03T05:15:44Z
2022-11-03T03:16:50Z,42.805,6.029,13.3014,4.60058,2470.651,2022-11-03T05:18:47Z
2022-11-03T03:19:53Z,42.805,6.029,13.3014,4.60057,2470.614,2022-11-03T05:21:50Z
2022-11-03T03:22:56Z,42.805,6.029,13.3016,4.60057,2470.637,2022-11-03T05:24:53Z
2022-11-03T03:25:59Z,42.805,6.029,13.3012,4.60057,2470.646,2022-11-03T05:27:56Z
2022-11-03T03:29:02Z,42.805,6.029,13.3013,4.60057,2470.624,2022-11-03T05:31:00Z
2022-11-03T03:32:05Z,42.805,6.029,13.3009,4.60058,2470.6,2022-11-03T05:34:03Z
2022-11-03T03:35:09Z,42.805,6.029,13.3012,4.60059,2470.661,2022-11-03T05:37:06Z
2022-11-03T03:38:12Z,42.805,6.029,13.3013,4.60058,2470.637,2022-11-03T05:40:09Z
2022-11-03T03:41:15Z,42.805,6.029,13.3014,4.60060,2470.637,2022-11-03T05:43:12Z
2022-11-03T03:44:18Z,42.805,6.029,13.3011,4.60058,2470.661,2022-11-03T05:46:15Z
2022-11-03T03:47:21Z,42.805,6.029,13.3011,4.60058,2470.624,2022-11-03T05:49:18Z
2022-11-03T03:50:24Z,42.805,6.029,13.3012,4.60058,2470.637,2022-11-03T05:52:21Z
2022-11-03T03:53:27Z,42.805,6.029,13.3012,4.60059,2470.624,2022-11-03T05:55:24Z
2022-11-03T03:56:30Z,42.805,6.029,13.3011,4.60058,2470.614,2022-11-03T05:58:27Z
2022-11-03T03:59:33Z,42.805,6.029,13.3014,4.60059,2470.624,2022-11-03T06:01:30Z
2022-11-03T04:02:36Z,42.805,6.029,13.3014,4.60058,2470.624,2022-11-03T06:04:33Z
2022-11-03T04:05:39Z,42.805,6.029,13.3012,4.60060,2470.614,2022-11-03T06:07:36Z
2022-11-03T04:08:42Z,42.805,6.029,13.3013,4.60057,2470.6,2022-11-03T06:10:39Z
2022-11-03T04:11:45Z,42.805,6.029,13.3010,4.60057,2470.614,2022-11-03T06:13:42Z
2022-11-03T04:14:48Z,42.805,6.029,13.3015,4.60058,2470.624,2022-11-03T06:16:46Z
2022-11-03T04:17:52Z,42.805,6.029,13.3013,4.60059,2470.614,2022-11-03T06:19:49Z
2022-11-03T04:20:55Z,42.805,6.029,13.3014,4.60059,2470.624,2022-11-03T06:22:52Z
2022-11-03T04:23:58Z,42.805,6.029,13.3011,4.60057,2470.624,2022-11-03T06:25:55Z
2022-11-03T04:27:01Z,42.805,6.029,13.3013,4.60057,2470.646,2022-11-03T06:28:58Z
2022-11-03T04:30:04Z,42.805,6.029,13.3011,4.60057,2470.624,2022-11-03T06:32:01Z
2022-11-03T04:33:07Z,42.805,6.029,13.3011,4.60057,2470.637,2022-11-03T06:35:04Z
2022-11-03T04:36:10Z,42.805,6.029,13.3011,4.60057,2470.624,2022-11-03T06:38:07Z
2022-11-03T04:39:13Z,42.805,6.029,13.3015,4.60058,2470.637,2022-11-03T06:41:10Z
2022-11-03T04:42:16Z,42.805,6.029,13.3014,4.60057,2470.637,2022-11-03T06:44:13Z
2022-11-03T04:45:19Z,42.805,6.029,13.3013,4.60058,2470.637,2022-11-03T06:47:16Z
2022-11-03T04:48:22Z,42.805,6.029,13.3013,4.60057,2470.624,2022-11-03T06:50:19Z
2022-11-03T04:51:25Z,42.805,6.029,13.3011,4.60058,2470.6,2022-11-03T06:53:22Z
2022-11-03T04:54:28Z,42.805,6.029,13.3012,4.60059,2470.637,2022-11-03T06:56:26Z
2022-11-03T04:57:32Z,42.805,6.029,13.3014,4.60057,2470.624,2022-11-03T06:59:29Z
2022-11-03T05:00:35Z,42.805,6.029,13.3011,4.60057,2470.6,2022-11-03T07:02:32Z
2022-11-03T05:03:38Z,42.805,6.029,13.3014,4.60058,2470.624,2022-11-03T07:05:35Z
2022-11-03T05:06:41Z,42.805,6.029,13.3014,4.60057,2470.614,2022-11-03T07:08:38Z
2022-11-03T05:09:44Z,42.805,6.029,13.3010,4.60057,2470.624,2022-11-03T07:11:41Z
2022-11-03T05:12:47Z,42.805,6.029,13.3013,4.60057,2470.624,2022-11-03T07:14:44Z
2022-11-03T05:15:50Z,42.805,6.029,13.3014,4.60059,2470.614,2022-11-03T07:17:47Z
2022-11-03T05:18:53Z,42.805,6.029,13.3011,4.60059,2470.6,2022-11-03T07:20:50Z
2022-11-03T05:21:56Z,42.805,6.029,13.3015,4.60059,2470.661,2022-11-03T07:23:53Z
2022-11-03T05:24:59Z,42.805,6.029,13.3011,4.60059,2470.624,2022-11-03T07:26:56Z
2022-11-03T05:28:02Z,42.805,6.029,13.3011,4.60059,2470.614,2022-11-03T07:29:59Z
2022-11-03T05:31:05Z,42.805,6.029,13.3014,4.60059,2470.614,2022-11-03T07:33:02Z
2022-11-03T05:34:08Z,42.805,6.029,13.3012,4.60059,2470.6,2022-11-03T07:36:05Z
2022-11-03T05:37:11Z,42.805,6.029,13.3014,4.60058,2470.6,2022-11-03T07:39:09Z
2022-11-03T05:40:15Z,42.805,6.029,13.3012,4.60058,2470.624,2022-11-03T07:42:12Z
2022-11-03T05:43:18Z,42.805,6.029,13.3012,4.60057,2470.661,2022-11-03T07:45:15Z
2022-11-03T05:46:21Z,42.805,6.029,13.3014,4.60058,2470.624,2022-11-03T07:48:18Z
2022-11-03T05:49:24Z,42.805,6.029,13.3014,4.60058,2470.6,2022-11-03T07:51:21Z
2022-11-03T05:52:27Z,42.805,6.029,13.3012,4.60059,2470.577,2022-11-03T07:54:24Z
2022-11-03T05:55:30Z,42.805,6.029,13.3011,4.60057,2470.6,2022-11-03T07:57:27Z
2022-11-03T05:58:33Z,42.805,6.029,13.3014,4.60058,2470.624,2022-11-03T08:00:30Z
2022-11-03T06:01:36Z,42.805,6.029,13.3014,4.60058,2470.614,2022-11-03T08:03:33Z
2022-11-03T06:04:39Z,42.805,6.029,13.3010,4.60058,2470.591,2022-11-03T08:06:36Z
2022-11-03T06:07:42Z,42.805,6.029,13.3012,4.60057,2470.614,2022-11-03T08:09:39Z
2022-11-03T06:10:45Z,42.805,6.029,13.3012,4.60057,2470.577,2022-11-03T08:12:42Z
2022-11-03T06:13:48Z,42.805,6.029,13.3011,4.60058,2470.586,2022-11-03T08:15:45Z
2022-11-03T06:16:51Z,42.805,6.029,13.3015,4.60059,2470.614,2022-11-03T08:18:48Z
2022-11-03T06:19:54Z,42.805,6.029,13.3009,4.60059,2470.577,2022-11-03T08:21:52Z
2022-11-03T06:22:58Z,42.805,6.029,13.3011,4.60059,2470.6,2022-11-03T08:24:55Z
2022-11-03T06:26:01Z,42.805,6.029,13.3012,4.60057,2470.614,2022-11-03T08:27:58Z
2022-11-03T06:29:04Z,42.805,6.029,13.3010,4.60058,2470.604,2022-11-03T08:31:01Z
2022-11-03T06:32:07Z,42.805,6.029,13.3007,4.60058,2470.614,2022-11-03T08:34:04Z
2022-11-03T06:35:10Z,42.805,6.029,13.3015,4.60058,2470.614,2022-11-03T08:37:07Z
2022-11-03T06:38:13Z,42.805,6.029,13.3012,4.60059,2470.614,2022-11-03T08:40:10Z
2022-11-03T06:41:16Z,42.805,6.029,13.3015,4.60060,2470.577,2022-11-03T08:43:13Z
2022-11-03T06:44:19Z,42.805,6.029,13.3014,4.60058,2470.591,2022-11-03T08:46:16Z
2022-11-03T06:47:22Z,42.805,6.029,13.3014,4.60057,2470.614,2022-11-03T08:49:19Z
2022-11-03T06:50:25Z,42.805,6.029,13.3014,4.60059,2470.6,2022-11-03T08:52:22Z
2022-11-03T06:53:28Z,42.805,6.029,13.3009,4.60058,2470.591,2022-11-03T08:55:25Z
2022-11-03T06:56:31Z,42.805,6.029,13.3014,4.60057,2470.577,2022-11-03T08:58:28Z
2022-11-03T06:59:34Z,42.805,6.029,13.3014,4.60057,2470.577,2022-11-03T09:01:32Z
2022-11-03T07:02:37Z,42.805,6.029,13.3010,4.60059,2470.577,2022-11-03T09:04:35Z
2022-11-03T07:05:41Z,42.805,6.029,13.3012,4.60061,2470.577,2022-11-03T09:07:38Z
2022-11-03T07:08:44Z,42.805,6.029,13.3011,4.60060,2470.581,2022-11-03T09:10:41Z
2022-11-03T07:11:47Z,42.805,6.029,13.3010,4.60059,2470.6,2022-11-03T09:13:44Z
2022-11-03T07:14:50Z,42.805,6.029,13.3015,4.60058,2470.567,2022-11-03T09:16:47Z
2022-11-03T07:17:53Z,42.805,6.029,13.3014,4.60063,2470.577,2022-11-03T09:19:50Z
2022-11-03T07:20:56Z,42.805,6.029,13.3011,4.60060,2470.591,2022-11-03T09:22:53Z
2022-11-03T07:23:59Z,42.805,6.029,13.3011,4.60061,2470.577,2022-11-03T09:25:56Z
2022-11-03T07:27:02Z,42.805,6.029,13.3013,4.60059,2470.6,2022-11-03T09:28:59Z
2022-11-03T07:30:05Z,42.805,6.029,13.3011,4.60059,2470.628,2022-11-03T09:32:02Z
2022-11-03T07:33:08Z,42.805,6.029,13.3011,4.60057,2470.614,2022-11-03T09:35:05Z
2022-11-03T07:36:11Z,42.805,6.029,13.3009,4.60062,2470.6,2022-11-03T09:38:08Z
2022-11-03T07:39:14Z,42.805,6.029,13.3010,4.60058,2470.591,2022-11-03T09:41:11Z
2022-11-03T07:42:17Z,42.805,6.029,13.3011,4.60058,2470.591,2022-11-03T09:44:15Z
2022-11-03T07:45:21Z,42.805,6.029,13.3009,4.60057,2470.591,2022-11-03T09:47:18Z
2022-11-03T07:48:24Z,42.805,6.029,13.3011,4.60057,2470.6,2022-11-03T09:50:21Z
2022-11-03T07:51:27Z,42.805,6.029,13.3009,4.60057,2470.614,2022-11-03T09:53:24Z
2022-11-03T07:54:30Z,42.805,6.029,13.3011,4.60060,2470.553,2022-11-03T09:56:27Z
2022-11-03T07:57:33Z,42.805,6.029,13.3011,4.60057,2470.591,2022-11-03T09:59:30Z
2022-11-03T08:00:36Z,42.805,6.029,13.3011,4.60058,2470.591,2022-11-03T10:02:33Z
2022-11-03T08:03:39Z,42.805,6.029,13.3014,4.60059,2470.577,2022-11-03T10:05:36Z
2022-11-03T08:06:42Z,42.805,6.029,13.3012,4.60056,2470.539,2022-11-03T10:08:39Z
2022-11-03T08:09:45Z,42.805,6.029,13.3014,4.60058,2470.577,2022-11-03T10:11:42Z
2022-11-03T08:12:48Z,42.805,6.029,13.3012,4.60059,2470.553,2022-11-03T10:14:45Z
2022-11-03T08:15:51Z,42.805,6.029,13.3011,4.60057,2470.577,2022-11-03T10:17:48Z
2022-11-03T08:18:54Z,42.805,6.029,13.3014,4.60057,2470.553,2022-11-03T10:20:51Z
2022-11-03T08:21:57Z,42.805,6.029,13.3011,4.60057,2470.577,2022-11-03T10:23:55Z
2022-11-03T08:25:01Z,42.805,6.029,13.3009,4.60058,2470.553,2022-11-03T10:26:58Z
2022-11-03T08:28:04Z,42.805,6.029,13.3012,4.60060,2470.553,2022-11-03T10:30:01Z
2022-11-03T08:31:07Z,42.805,6.029,13.3011,4.60057,2470.539,2022-11-03T10:33:04Z
2022-11-03T08:34:10Z,42.805,6.029,13.3009,4.60057,2470.553,2022-11-03T10:36:07Z
2022-11-03T08:37:13Z,42.805,6.029,13.3012,4.60057,2470.591,2022-11-03T10:39:10Z
2022-11-03T08:40:16Z,42.805,6.029,13.3011,4.60061,2470.53,2022-11-03T10:42:13Z
2022-11-03T08:43:19Z,42.805,6.029,13.3013,4.60059,2470.544,2022-11-03T10:45:16Z
2022-11-03T08:46:22Z,42.805,6.029,13.3009,4.60059,2470.577,2022-11-03T10:48:19Z
2022-11-03T08:49:25Z,42.805,6.029,13.3011,4.60062,2470.567,2022-11-03T10:51:22Z
2022-11-03T08:52:28Z,42.805,6.029,13.3013,4.60058,2470.553,2022-11-03T10:54:25Z
2022-11-03T08:55:31Z,42.805,6.029,13.3013,4.60057,2470.553,2022-11-03T10:57:28Z
2022-11-03T08:58:34Z,42.805,6.029,13.3010,4.60057,2470.553,2022-11-03T11:00:31Z
2022-11-03T09:01:37Z,42.805,6.029,13.3014,4.60058,2470.6,2022-11-03T11:03:35Z
2022-11-03T09:04:41Z,42.805,6.029,13.3011,4.60059,2470.553,2022-11-03T11:06:38Z
2022-11-03T09:07:44Z,42.805,6.029,13.3013,4.60058,2470.544,2022-11-03T11:09:41Z
2022-11-03T09:10:47Z,42.805,6.029,13.3011,4.60059,2470.567,2022-11-03T11:12:44Z
2022-11-03T09:13:50Z,42.805,6.029,13.3012,4.60061,2470.553,2022-11-03T11:15:47Z
2022-11-03T09:16:53Z,42.805,6.029,13.3014,4.60059,2470.577,2022-11-03T11:18:50Z
2022-11-03T09:19:56Z,42.805,6.029,13.3008,4.60060,2470.53,2022-11-03T11:21:53Z
2022-11-03T09:22:59Z,42.805,6.029,13.3011,4.60057,2470.553,2022-11-03T11:24:56Z
2022-11-03T09:26:02Z,42.805,6.029,13.3006,4.60059,2470.553,2022-11-03T11:27:59Z
2022-11-03T09:29:05Z,42.805,6.029,13.3009,4.60058,2470.567,2022-11-03T11:31:02Z
2022-11-03T09:32:08Z,42.805,6.029,13.3013,4.60057,2470.577,2022-11-03T11:34:05Z
2022-11-03T09:35:11Z,42.805,6.029,13.3013,4.60058,2470.567,2022-11-03T11:37:08Z
2022-11-03T09:38:14Z,42.805,6.029,13.3010,4.60060,2470.553,2022-11-03T11:40:11Z
2022-11-03T09:41:17Z,42.805,6.029,13.3014,4.60059,2470.553,2022-11-03T11:43:15Z
2022-11-03T09:44:20Z,42.805,6.029,13.3011,4.60059,2470.567,2022-11-03T11:46:18Z
2022-11-03T09:47:24Z,42.805,6.029,13.3009,4.60061,2470.553,2022-11-03T11:49:21Z
2022-11-03T09:50:27Z,42.805,6.029,13.3014,4.60062,2470.577,2022-11-03T11:52:24Z
2022-11-03T09:53:30Z,42.805,6.029,13.3011,4.60060,2470.53,2022-11-03T11:55:27Z
2022-11-03T09:56:33Z,42.805,6.029,13.3011,4.60059,2470.591,2022-11-03T11:58:30Z
2022-11-03T09:59:36Z,42.805,6.029,13.3013,4.60059,2470.6,2022-11-03T12:01:33Z
2022-11-03T10:02:39Z,42.805,6.029,13.3013,4.60059,2470.544,2022-11-03T12:04:36Z
2022-11-03T10:05:42Z,42.805,6.029,13.3012,4.60058,2470.577,2022-11-03T12:07:39Z
2022-11-03T10:08:45Z,42.805,6.029,13.3011,4.60059,2470.591,2022-11-03T12:10:42Z
2022-11-03T10:11:48Z,42.805,6.029,13.3009,4.60062,2470.553,2022-11-03T12:13:45Z
2022-11-03T10:14:51Z,42.805,6.029,13.3011,4.60061,2470.577,2022-11-03T12:16:48Z
2022-11-03T10:17:54Z,42.805,6.029,13.3010,4.60059,2470.591,2022-11-03T12:19:51Z
2022-11-03T10:20:57Z,42.805,6.029,13.3009,4.60060,2470.567,2022-11-03T12:22:55Z
2022-11-03T10:24:01Z,42.805,6.029,13.3014,4.60060,2470.553,2022-11-03T12:25:58Z
2022-11-03T10:27:04Z,42.805,6.029,13.3013,4.60059,2470.553,2022-11-03T12:29:01Z
2022-11-03T10:30:07Z,42.805,6.029,13.3010,4.60059,2470.577,2022-11-03T12:32:04Z
2022-11-03T10:33:10Z,42.805,6.029,13.3011,4.60057,2470.567,2022-11-03T12:35:07Z
2022-11-03T10:36:13Z,42.805,6.029,13.3011,4.60058,2470.6,2022-11-03T12:38:10Z
2022-11-03T10:39:16Z,42.805,6.029,13.3010,4.60059,2470.567,2022-11-03T12:41:13Z
2022-11-03T10:42:19Z,42.805,6.029,13.3016,4.60060,2470.577,2022-11-03T12:44:16Z
2022-11-03T10:45:22Z,42.805,6.029,13.3015,4.60059,2470.553,2022-11-03T12:47:19Z
2022-11-03T10:48:25Z,42.805,6.029,13.3015,4.60059,2470.553,2022-11-03T12:50:22Z
2022-11-03T10:51:28Z,42.805,6.029,13.3009,4.60061,2470.614,2022-11-03T12:53:25Z
2022-11-03T10:54:31Z,42.805,6.029,13.3011,4.60059,2470.553,2022-11-03T12:56:28Z
2022-11-03T10:57:34Z,42.805,6.029,13.3008,4.60059,2470.553,2022-11-03T12:59:31Z
2022-11-03T11:00:37Z,42.805,6.029,13.3011,4.60058,2470.567,2022-11-03T13:02:35Z
2022-11-03T11:03:41Z,42.805,6.029,13.3015,4.60060,2470.577,2022-11-03T13:05:38Z
2022-11-03T11:06:44Z,42.805,6.029,13.3014,4.60059,2470.6,2022-11-03T13:08:41Z
2022-11-03T11:09:47Z,42.805,6.029,13.3009,4.60059,2470.6,2022-11-03T13:11:44Z
2022-11-03T11:12:50Z,42.805,6.029,13.3006,4.60058,2470.6,2022-11-03T13:14:47Z
2022-11-03T11:15:53Z,42.805,6.029,13.3011,4.60058,2470.6,2022-11-03T13:17:50Z
2022-11-03T11:18:56Z,42.805,6.029,13.3011,4.60059,2470.553,2022-11-03T13:20:53Z
2022-11-03T11:21:59Z,42.805,6.029,13.3009,4.60058,2470.577,2022-11-03T13:23:56Z
2022-11-03T11:25:02Z,42.805,6.029,13.3011,4.60060,2470.614,2022-11-03T13:26:59Z
2022-11-03T11:28:05Z,42.805,6.029,13.3011,4.60061,2470.591,2022-11-03T13:30:02Z
2022-11-03T11:31:08Z,42.805,6.029,13.3009,4.60060,2470.577,2022-11-03T13:33:05Z
2022-11-03T11:34:11Z,42.805,6.029,13.3012,4.60060,2470.577,2022-11-03T13:36:08Z
2022-11-03T11:37:14Z,42.805,6.029,13.3009,4.60062,2470.6,2022-11-03T13:39:12Z
2022-11-03T11:40:17Z,42.805,6.029,13.3015,4.60059,2470.577,2022-11-03T13:42:15Z
2022-11-03T11:43:21Z,42.805,6.029,13.3011,4.60061,2470.6,2022-11-03T13:45:18Z
2022-11-03T11:46:24Z,42.805,6.029,13.3011,4.60061,2470.591,2022-11-03T13:48:21Z
2022-11-03T11:49:27Z,42.805,6.029,13.3010,4.60060,2470.614,2022-11-03T13:51:24Z
2022-11-03T11:52:30Z,42.805,6.029,13.3011,4.60062,2470.577,2022-11-03T13:54:27Z
2022-11-03T11:55:33Z,42.805,6.029,13.3012,4.60062,2470.614,2022-11-03T13:57:30Z
2022-11-03T11:58:36Z,42.805,6.029,13.3013,4.60061,2470.624,2022-11-03T14:00:33Z
2022-11-03T12:01:39Z,42.805,6.029,13.3013,4.60060,2470.624,2022-11-03T14:03:36Z
2022-11-03T12:04:42Z,42.805,6.029,13.3016,4.60061,2470.624,2022-11-03T14:06:39Z
2022-11-03T12:07:45Z,42.805,6.029,13.3013,4.60058,2470.6,2022-11-03T14:09:42Z
2022-11-03T12:10:48Z,42.805,6.029,13.3011,4.60059,2470.624,2022-11-03T14:12:45Z
2022-11-03T12:13:51Z,42.805,6.029,13.3012,4.60059,2470.624,2022-11-03T14:15:48Z
2022-11-03T12:16:54Z,42.805,6.029,13.3011,4.60059,2470.646,2022-11-03T14:18:52Z
2022-11-03T12:19:57Z,42.805,6.029,13.3012,4.60060,2470.6,2022-11-03T14:21:55Z
2022-11-03T12:23:01Z,42.805,6.029,13.3011,4.60060,2470.637,2022-11-03T14:24:58Z
2022-11-03T12:26:04Z,42.805,6.029,13.3012,4.60060,2470.6,2022-11-03T14:28:01Z
2022-11-03T12:29:07Z,42.805,6.029,13.3011,4.60061,2470.624,2022-11-03T14:31:04Z
2022-11-03T12:32:10Z,42.805,6.029,13.3011,4.60063,2470.646,2022-11-03T14:34:07Z
2022-11-03T12:35:13Z,42.805,6.029,13.3013,4.60063,2470.624,2022-11-03T14:37:10Z
2022-11-03T12:38:16Z,42.805,6.029,13.3015,4.60060,2470.646,2022-11-03T14:40:13Z
2022-11-03T12:41:19Z,42.805,6.029,13.3014,4.60060,2470.67,2022-11-03T14:43:16Z
2022-11-03T12:44:22Z,42.805,6.029,13.3014,4.60059,2470.646,2022-11-03T14:46:19Z
2022-11-03T12:47:25Z,42.805,6.029,13.3012,4.60060,2470.646,2022-11-03T14:49:22Z
2022-11-03T12:50:28Z,42.805,6.029,13.3012,4.60060,2470.707,2022-11-03T14:52:25Z
2022-11-03T12:53:31Z,42.805,6.029,13.3011,4.60059,2470.684,2022-11-03T14:55:28Z
2022-11-03T12:56:34Z,42.805,6.029,13.3011,4.60062,2470.624,2022-11-03T14:58:32Z
2022-11-03T12:59:37Z,42.805,6.029,13.3014,4.60059,2470.67,2022-11-03T15:01:35Z
2022-11-03T13:02:41Z,42.805,6.029,13.3014,4.60063,2470.646,2022-11-03T15:04:38Z
2022-11-03T13:05:44Z,42.805,6.029,13.3014,4.60058,2470.646,2022-11-03T15:07:41Z
2022-11-03T13:08:47Z,42.805,6.029,13.3010,4.60058,2470.684,2022-11-03T15:10:44Z
2022-11-03T13:11:50Z,42.805,6.029,13.3010,4.60059,2470.679,2022-11-03T15:13:47Z
2022-11-03T13:14:53Z,42.805,6.029,13.3012,4.60060,2470.684,2022-11-03T15:16:50Z
2022-11-03T13:17:56Z,42.805,6.029,13.3009,4.60061,2470.67,2022-11-03T15:19:53Z
2022-11-03T13:20:59Z,42.805,6.029,13.3009,4.60061,2470.684,2022-11-03T15:22:56Z
2022-11-03T13:24:02Z,42.805,6.029,13.3009,4.60059,2470.707,2022-11-03T15:25:59Z
2022-11-03T13:27:05Z,42.805,6.029,13.3011,4.60062,2470.684,2022-11-03T15:29:02Z
2022-11-03T13:30:08Z,42.805,6.029,13.3010,4.60059,2470.67,2022-11-03T15:32:05Z
2022-11-03T13:33:11Z,42.805,6.029,13.3012,4.60059,2470.67,2022-11-03T15:35:08Z
2022-11-03T13:36:14Z,42.805,6.029,13.3015,4.60061,2470.67,2022-11-03T15:38:12Z
2022-11-03T13:39:18Z,42.805,6.029,13.3015,4.60059,2470.67,2022-11-03T15:41:15Z
2022-11-03T13:42:21Z,42.805,6.029,13.3011,4.60059,2470.67,2022-11-03T15:44:18Z
2022-11-03T13:45:24Z,42.805,6.029,13.3009,4.60059,2470.707,2022-11-03T15:47:21Z
2022-11-03T13:48:27Z,42.805,6.029,13.3014,4.60059,2470.707,2022-11-03T15:50:24Z
2022-11-03T13:51:30Z,42.805,6.029,13.3014,4.60062,2470.684,2022-11-03T15:53:27Z
2022-11-03T13:54:33Z,42.805,6.029,13.3009,4.60059,2470.717,2022-11-03T15:56:30Z
2022-11-03T13:57:36Z,42.805,6.029,13.3009,4.60061,2470.707,2022-11-03T15:59:33Z
2022-11-03T14:00:39Z,42.805,6.029,13.3015,4.60060,2470.693,2022-11-03T16:02:36Z
2022-11-03T14:03:42Z,42.805,6.029,13.3013,4.60059,2470.684,2022-11-03T16:05:39Z
2022-11-03T14:06:45Z,42.805,6.029,13.3011,4.60059,2470.754,2022-11-03T16:08:42Z
2022-11-03T14:09:48Z,42.805,6.029,13.3014,4.60060,2470.693,2022-11-03T16:11:45Z
2022-11-03T14:12:51Z,42.805,6.029,13.3012,4.60061,2470.703,2022-11-03T16:14:48Z
2022-11-03T14:15:54Z,42.805,6.029,13.3014,4.60059,2470.74,2022-11-03T16:17:52Z
2022-11-03T14:18:58Z,42.805,6.029,13.3012,4.60058,2470.67,2022-11-03T16:20:55Z
2022-11-03T14:22:01Z,42.805,6.029,13.3014,4.60059,2470.693,2022-11-03T16:23:58Z
2022-11-03T14:25:04Z,42.805,6.029,13.3014,4.60062,2470.67,2022-11-03T16:27:01Z
2022-11-03T14:28:07Z,42.805,6.029,13.3014,4.60061,2470.717,2022-11-03T16:30:04Z
2022-11-03T14:31:10Z,42.805,6.029,13.3011,4.60060,2470.73,2022-11-03T16:33:07Z
2022-11-03T14:34:13Z,42.805,6.029,13.3011,4.60060,2470.693,2022-11-03T16:36:10Z
2022-11-03T14:37:16Z,42.805,6.029,13.3014,4.60059,2470.73,2022-11-03T16:39:13Z
2022-11-03T14:40:19Z,42.805,6.029,13.3011,4.60059,2470.754,2022-11-03T16:42:16Z
2022-11-03T14:43:22Z,42.805,6.029,13.3009,4.60059,2470.74,2022-11-03T16:45:19Z
2022-11-03T14:46:25Z,42.805,6.029,13.3014,4.60059,2470.74,2022-11-03T16:48:22Z
2022-11-03T14:49:28Z,42.805,6.029,13.3011,4.60059,2470.74,2022-11-03T16:51:25Z
2022-11-03T14:52:31Z,42.805,6.029,13.3014,4.60058,2470.679,2022-11-03T16:54:29Z
2022-11-03T14:55:34Z,42.805,6.029,13.3009,4.60059,2470.717,2022-11-03T16:57:32Z
2022-11-03T14:58:38Z,42.805,6.029,13.3013,4.60059,2470.717,2022-11-03T17:00:35Z
2022-11-03T15:01:41Z,42.805,6.029,13.3012,4.60059,2470.754,2022-11-03T17:03:38Z